TPC6432 YTRE-YSSY

Flight info

Callsign TPC6432
Flight time 0h 51m
Altitude 20000
Route UGPOT V672 SORTI W656 OLTIN/N0271F190 H201 TESAT
Aircraft SF50/L-BDGRSWY/LB2U2

Departure

Time 2026-05-06 11:48
Airport Taree Airport (YTRE)

Arrival

Time 2026-05-06 12:39
Airport Sydney Kingsford Smith International Airport (YSSY)
Time Latitude Longitude Altitude Speed Heading
2026-05-06 11:42 -31.89091 152.50946 33 ft 0 kts 213°
2026-05-06 11:45 -31.89093 152.50943 33 ft 3 kts 231°
2026-05-06 11:45 -31.89093 152.50929 33 ft 2 kts 61°
2026-05-06 11:45 -31.89087 152.50963 33 ft 5 kts 108°
2026-05-06 11:45 -31.89087 152.50964 33 ft 0 kts 109°
2026-05-06 11:46 -31.89089 152.50969 33 ft 5 kts 115°
2026-05-06 11:46 -31.89108 152.51003 31 ft 0 kts 134°
2026-05-06 11:47 -31.89141 152.51044 32 ft 10 kts 133°
2026-05-06 11:47 -31.89164 152.51107 33 ft 7 kts 75°
2026-05-06 11:47 -31.89110 152.51193 32 ft 41 kts 44°
2026-05-06 11:48 -31.88713 152.51659 99 ft 111 kts 45°
2026-05-06 11:48 -31.88114 152.52349 575 ft 121 kts 33°
2026-05-06 11:48 -31.87303 152.52776 806 ft 139 kts 12°
2026-05-06 11:48 -31.86280 152.53019 854 ft 159 kts 12°
2026-05-06 11:49 -31.85180 152.52983 971 ft 163 kts 335°
2026-05-06 11:49 -31.84555 152.51909 1136 ft 168 kts 283°
2026-05-06 11:49 -31.84385 152.50551 1323 ft 168 kts 280°
2026-05-06 11:49 -31.84207 152.49192 1500 ft 169 kts 281°
2026-05-06 11:50 -31.84041 152.47819 1680 ft 170 kts 281°
2026-05-06 11:50 -31.83889 152.46442 1846 ft 170 kts 281°
2026-05-06 11:50 -31.83742 152.45057 2009 ft 171 kts 280°
2026-05-06 11:50 -31.83598 152.43691 2188 ft 171 kts 281°
2026-05-06 11:51 -31.83456 152.42303 2348 ft 171 kts 280°
2026-05-06 11:51 -31.83317 152.40917 2501 ft 171 kts 280°
2026-05-06 11:51 -31.83186 152.39530 2655 ft 171 kts 280°
2026-05-06 11:51 -31.83052 152.38138 2794 ft 171 kts 280°
2026-05-06 11:52 -31.82915 152.36745 2934 ft 172 kts 280°
2026-05-06 11:52 -31.82834 152.35345 3047 ft 175 kts 266°
2026-05-06 11:52 -31.83335 152.34025 3167 ft 179 kts 242°
2026-05-06 11:52 -31.83946 152.32757 3294 ft 178 kts 246°
2026-05-06 11:53 -31.84475 152.31465 3399 ft 178 kts 248°
2026-05-06 11:53 -31.84999 152.30152 3512 ft 177 kts 248°
2026-05-06 11:53 -31.85524 152.28844 3631 ft 177 kts 248°
2026-05-06 11:53 -31.86050 152.27535 3752 ft 178 kts 247°
2026-05-06 11:54 -31.86585 152.26207 4307 ft 175 kts 247°
2026-05-06 11:54 -31.87099 152.24929 5096 ft 172 kts 248°
2026-05-06 11:54 -31.87607 152.23661 5802 ft 171 kts 249°
2026-05-06 11:54 -31.88113 152.22397 6512 ft 170 kts 249°
2026-05-06 11:55 -31.88619 152.21135 7173 ft 171 kts 249°
2026-05-06 11:55 -31.89120 152.19887 7817 ft 171 kts 250°
2026-05-06 11:55 -31.89626 152.18619 8487 ft 171 kts 250°
2026-05-06 11:55 -31.90137 152.17347 9140 ft 172 kts 250°
2026-05-06 11:56 -31.90646 152.16066 9743 ft 174 kts 250°
2026-05-06 11:56 -31.91165 152.14782 10362 ft 174 kts 250°
2026-05-06 11:56 -31.91686 152.13478 10919 ft 178 kts 250°
2026-05-06 11:56 -31.92217 152.12142 11444 ft 182 kts 250°
2026-05-06 11:57 -31.92762 152.10787 12008 ft 185 kts 249°
2026-05-06 11:57 -31.93308 152.09428 12547 ft 188 kts 249°
2026-05-06 11:57 -31.93869 152.08024 13085 ft 191 kts 248°
2026-05-06 11:57 -31.94440 152.06597 13619 ft 194 kts 248°
2026-05-06 11:58 -31.95018 152.05144 14118 ft 197 kts 248°
2026-05-06 11:58 -31.95601 152.03684 14620 ft 197 kts 248°
2026-05-06 11:58 -31.96184 152.02221 15126 ft 197 kts 248°
2026-05-06 11:58 -31.96768 152.00758 15628 ft 198 kts 249°
2026-05-06 11:59 -31.97356 151.99289 16115 ft 198 kts 249°
2026-05-06 11:59 -31.97948 151.97823 16602 ft 198 kts 249°
2026-05-06 11:59 -31.98527 151.96370 17082 ft 199 kts 249°
2026-05-06 11:59 -31.99114 151.94899 17553 ft 199 kts 249°
2026-05-06 12:00 -31.99700 151.93425 18019 ft 199 kts 250°
2026-05-06 12:00 -32.00288 151.91941 18449 ft 200 kts 250°
2026-05-06 12:00 -32.00875 151.90452 18858 ft 200 kts 251°
2026-05-06 12:00 -32.01463 151.88965 19253 ft 200 kts 251°
2026-05-06 12:01 -32.02053 151.87475 19625 ft 201 kts 251°
2026-05-06 12:01 -32.02647 151.85984 20010 ft 201 kts 251°
2026-05-06 12:01 -32.03252 151.84444 20091 ft 215 kts 251°
2026-05-06 12:01 -32.03892 151.82820 20101 ft 227 kts 250°
2026-05-06 12:02 -32.04580 151.81102 20100 ft 236 kts 250°
2026-05-06 12:02 -32.05285 151.79328 20104 ft 242 kts 250°
2026-05-06 12:02 -32.06009 151.77515 20107 ft 247 kts 250°
2026-05-06 12:02 -32.06741 151.75664 20105 ft 251 kts 250°
2026-05-06 12:03 -32.07485 151.73777 20104 ft 256 kts 250°
2026-05-06 12:03 -32.08244 151.71866 20103 ft 259 kts 250°
2026-05-06 12:03 -32.09011 151.69928 20101 ft 263 kts 250°
2026-05-06 12:03 -32.09778 151.67982 20105 ft 267 kts 250°
2026-05-06 12:04 -32.10567 151.65991 20104 ft 270 kts 250°
2026-05-06 12:04 -32.11453 151.64016 20103 ft 277 kts 242°
2026-05-06 12:04 -32.12686 151.62239 20102 ft 285 kts 231°
2026-05-06 12:04 -32.14226 151.60738 20095 ft 289 kts 221°
2026-05-06 12:05 -32.15870 151.59372 20087 ft 290 kts 221°
2026-05-06 12:05 -32.17510 151.57977 20093 ft 291 kts 222°
2026-05-06 12:05 -32.19151 151.56567 20102 ft 293 kts 221°
2026-05-06 12:05 -32.20808 151.55156 20098 ft 294 kts 221°
2026-05-06 12:06 -32.22468 151.53747 20102 ft 294 kts 221°
2026-05-06 12:06 -32.24128 151.52334 20067 ft 295 kts 221°
2026-05-06 12:06 -32.25778 151.50925 19948 ft 299 kts 221°
2026-05-06 12:06 -32.27476 151.49480 19828 ft 302 kts 221°
2026-05-06 12:07 -32.29187 151.48023 19704 ft 304 kts 221°
2026-05-06 12:07 -32.30908 151.46555 19586 ft 305 kts 221°
2026-05-06 12:07 -32.32633 151.45084 19482 ft 307 kts 221°
2026-05-06 12:07 -32.34375 151.43597 19291 ft 311 kts 220°
2026-05-06 12:08 -32.36127 151.42107 19060 ft 312 kts 220°
2026-05-06 12:08 -32.37898 151.40592 18827 ft 313 kts 220°
2026-05-06 12:08 -32.39662 151.39079 18586 ft 313 kts 220°
2026-05-06 12:08 -32.41404 151.37588 18354 ft 313 kts 220°
2026-05-06 12:09 -32.43277 151.36260 18085 ft 320 kts 207°
2026-05-06 12:09 -32.45434 151.35546 17758 ft 324 kts 193°
2026-05-06 12:09 -32.47659 151.35229 17369 ft 321 kts 190°
2026-05-06 12:09 -32.49866 151.34915 16974 ft 318 kts 191°
2026-05-06 12:10 -32.52054 151.34573 16592 ft 316 kts 191°
2026-05-06 12:10 -32.54232 151.34236 16215 ft 315 kts 190°
2026-05-06 12:10 -32.56401 151.33915 15842 ft 314 kts 190°
2026-05-06 12:10 -32.58564 151.33591 15467 ft 313 kts 187°
2026-05-06 12:11 -32.60719 151.33289 15108 ft 309 kts 190°
2026-05-06 12:11 -32.62828 151.32954 14750 ft 304 kts 191°
2026-05-06 12:11 -32.64890 151.32625 14399 ft 303 kts 190°
2026-05-06 12:11 -32.66980 151.32313 14047 ft 302 kts 190°
2026-05-06 12:12 -32.69061 151.32004 13674 ft 301 kts 190°
2026-05-06 12:12 -32.71130 151.31690 13280 ft 299 kts 190°
2026-05-06 12:12 -32.73192 151.31377 13087 ft 298 kts 190°
2026-05-06 12:12 -32.75254 151.31062 13091 ft 299 kts 190°
2026-05-06 12:13 -32.77315 151.30753 13087 ft 298 kts 190°
2026-05-06 12:13 -32.79373 151.30443 13087 ft 298 kts 190°
2026-05-06 12:13 -32.81423 151.30130 13087 ft 297 kts 190°
2026-05-06 12:13 -32.83471 151.29819 13085 ft 296 kts 190°
2026-05-06 12:14 -32.85510 151.29511 13085 ft 295 kts 190°
2026-05-06 12:14 -32.87543 151.29201 13085 ft 294 kts 190°
2026-05-06 12:14 -32.89538 151.28897 13084 ft 293 kts 190°
2026-05-06 12:14 -32.91554 151.28590 13084 ft 292 kts 190°
2026-05-06 12:15 -32.93552 151.28287 13081 ft 291 kts 190°
2026-05-06 12:15 -32.95567 151.27980 13081 ft 290 kts 190°
2026-05-06 12:15 -32.97571 151.27672 13026 ft 292 kts 191°
2026-05-06 12:15 -32.99604 151.27357 12803 ft 297 kts 191°
2026-05-06 12:16 -33.01655 151.27045 12506 ft 297 kts 191°
2026-05-06 12:16 -33.03688 151.26742 12254 ft 293 kts 191°
2026-05-06 12:16 -33.05714 151.26436 12005 ft 294 kts 190°
2026-05-06 12:16 -33.07747 151.26124 11755 ft 294 kts 191°
2026-05-06 12:17 -33.09083 151.25914 11592 ft 291 kts 191°
2026-05-06 12:17 -33.11084 151.25607 11346 ft 291 kts 191°
2026-05-06 12:17 -33.13744 151.25204 11016 ft 290 kts 191°
2026-05-06 12:17 -33.15742 151.24900 10778 ft 290 kts 191°
2026-05-06 12:18 -33.17746 151.24596 10535 ft 289 kts 191°
2026-05-06 12:18 -33.19732 151.24307 10294 ft 287 kts 191°
2026-05-06 12:18 -33.21710 151.23995 10071 ft 287 kts 192°
2026-05-06 12:18 -33.23673 151.23683 9821 ft 284 kts 191°
2026-05-06 12:19 -33.24968 151.23484 9646 ft 282 kts 191°
2026-05-06 12:19 -33.26913 151.23192 9387 ft 282 kts 191°
2026-05-06 12:19 -33.28856 151.22895 9126 ft 281 kts 191°
2026-05-06 12:19 -33.30796 151.22592 8865 ft 281 kts 191°
2026-05-06 12:20 -33.33357 151.22203 8528 ft 279 kts 191°
2026-05-06 12:20 -33.35277 151.21910 8277 ft 278 kts 191°
2026-05-06 12:20 -33.37193 151.21612 8039 ft 278 kts 191°
2026-05-06 12:20 -33.38465 151.21416 8029 ft 278 kts 191°
2026-05-06 12:21 -33.40386 151.21132 8025 ft 278 kts 189°
2026-05-06 12:21 -33.42314 151.21014 8026 ft 278 kts 186°
2026-05-06 12:21 -33.44264 151.20918 7776 ft 281 kts 186°
2026-05-06 12:21 -33.46175 151.20818 7408 ft 272 kts 186°
2026-05-06 12:22 -33.48689 151.20679 6930 ft 273 kts 186°
2026-05-06 12:22 -33.50583 151.20570 6570 ft 271 kts 186°
2026-05-06 12:22 -33.51855 151.20498 6313 ft 270 kts 186°
2026-05-06 12:22 -33.53727 151.20388 6021 ft 269 kts 186°
2026-05-06 12:23 -33.55578 151.20282 6019 ft 272 kts 186°
2026-05-06 12:23 -33.57470 151.20177 6021 ft 272 kts 186°
2026-05-06 12:23 -33.59363 151.20072 6020 ft 273 kts 186°
2026-05-06 12:23 -33.61254 151.19968 6018 ft 271 kts 186°
2026-05-06 12:24 -33.63141 151.19894 6016 ft 272 kts 181°
2026-05-06 12:24 -33.64999 151.20387 6004 ft 275 kts 165°
2026-05-06 12:24 -33.66817 151.21137 6016 ft 277 kts 163°
2026-05-06 12:24 -33.68632 151.21914 6013 ft 278 kts 163°
2026-05-06 12:25 -33.70433 151.22695 6008 ft 279 kts 162°
2026-05-06 12:25 -33.72254 151.23484 6006 ft 278 kts 163°
2026-05-06 12:25 -33.74075 151.24280 6011 ft 277 kts 162°
2026-05-06 12:25 -33.75894 151.25067 6007 ft 278 kts 163°
2026-05-06 12:26 -33.77715 151.25854 6009 ft 278 kts 163°
2026-05-06 12:26 -33.79541 151.26642 6008 ft 278 kts 163°
2026-05-06 12:26 -33.81291 151.27401 6005 ft 255 kts 163°
2026-05-06 12:26 -33.82883 151.28095 6000 ft 232 kts 162°
2026-05-06 12:27 -33.84351 151.28666 5993 ft 214 kts 167°
2026-05-06 12:27 -33.85753 151.29134 5991 ft 213 kts 168°
2026-05-06 12:27 -33.87183 151.29619 5993 ft 214 kts 168°
2026-05-06 12:27 -33.88615 151.30107 5993 ft 214 kts 168°
2026-05-06 12:28 -33.90050 151.30595 5994 ft 214 kts 168°
2026-05-06 12:28 -33.91480 151.31083 5994 ft 214 kts 168°
2026-05-06 12:28 -33.92913 151.31571 5997 ft 214 kts 167°
2026-05-06 12:28 -33.94349 151.32054 5997 ft 214 kts 168°
2026-05-06 12:29 -33.95787 151.32536 5998 ft 215 kts 167°
2026-05-06 12:29 -33.97228 151.33017 5998 ft 215 kts 168°
2026-05-06 12:29 -33.98652 151.33492 5997 ft 215 kts 168°
2026-05-06 12:29 -34.00096 151.33979 5999 ft 215 kts 168°
2026-05-06 12:30 -34.01507 151.34463 5833 ft 204 kts 168°
2026-05-06 12:30 -34.02896 151.34938 4984 ft 210 kts 168°
2026-05-06 12:30 -34.04290 151.35422 4271 ft 207 kts 168°
2026-05-06 12:30 -34.05678 151.35907 3540 ft 208 kts 168°
2026-05-06 12:31 -34.07057 151.36387 3012 ft 201 kts 167°
2026-05-06 12:31 -34.08366 151.36822 2990 ft 199 kts 169°
2026-05-06 12:31 -34.09762 151.37297 2998 ft 211 kts 168°
2026-05-06 12:31 -34.11162 151.37720 2991 ft 204 kts 179°
2026-05-06 12:32 -34.12437 151.37252 2985 ft 192 kts 225°
2026-05-06 12:32 -34.13097 151.35936 2988 ft 183 kts 252°
2026-05-06 12:32 -34.13563 151.34475 2999 ft 187 kts 254°
2026-05-06 12:32 -34.14044 151.33050 2997 ft 183 kts 252°
2026-05-06 12:33 -34.14523 151.31589 2996 ft 189 kts 253°
2026-05-06 12:33 -34.15006 151.30131 2999 ft 186 kts 253°
2026-05-06 12:33 -34.15481 151.28669 3001 ft 186 kts 256°
2026-05-06 12:33 -34.15384 151.27189 2989 ft 179 kts 301°
2026-05-06 12:34 -34.14503 151.26190 2995 ft 177 kts 323°
2026-05-06 12:34 -34.13509 151.25304 2993 ft 178 kts 322°
2026-05-06 12:34 -34.12509 151.24414 2991 ft 179 kts 322°
2026-05-06 12:34 -34.11484 151.23568 2878 ft 179 kts 327°
2026-05-06 12:35 -34.10389 151.22949 2670 ft 172 kts 340°
2026-05-06 12:35 -34.09239 151.22581 2449 ft 171 kts 344°
2026-05-06 12:35 -34.08076 151.22252 2222 ft 171 kts 344°
2026-05-06 12:35 -34.06915 151.21944 1994 ft 171 kts 347°
2026-05-06 12:36 -34.05755 151.21649 1769 ft 170 kts 345°
2026-05-06 12:36 -34.04678 151.21359 1559 ft 147 kts 346°
2026-05-06 12:36 -34.03750 151.21126 1368 ft 131 kts 344°
2026-05-06 12:36 -34.02905 151.20894 1207 ft 112 kts 346°
2026-05-06 12:37 -34.02199 151.20719 1060 ft 97 kts 344°
2026-05-06 12:37 -34.01578 151.20552 940 ft 85 kts 346°
2026-05-06 12:37 -34.01000 151.20414 831 ft 87 kts 345°
2026-05-06 12:37 -34.00418 151.20252 726 ft 84 kts 346°
2026-05-06 12:38 -33.99845 151.20111 604 ft 84 kts 342°
2026-05-06 12:38 -33.99248 151.19942 496 ft 94 kts 345°
2026-05-06 12:38 -33.98630 151.19788 367 ft 90 kts 346°
2026-05-06 12:38 -33.98007 151.19624 255 ft 94 kts 342°
2026-05-06 12:39 -33.97350 151.19458 91 ft 102 kts 342°
2026-05-06 12:39 -33.96704 151.19293 25 ft 83 kts 342°
2026-05-06 12:39 -33.96272 151.19165 18 ft 45 kts 345°
2026-05-06 12:39 -33.96012 151.19099 23 ft 33 kts 345°
2026-05-06 12:40 -33.95871 151.19025 23 ft 18 kts 323°
2026-05-06 12:40 -33.95772 151.18928 20 ft 20 kts 318°
2026-05-06 12:40 -33.95726 151.18880 19 ft 7 kts 329°
2026-05-06 12:40 -33.95673 151.18836 19 ft 12 kts 333°
2026-05-06 12:41 -33.95566 151.18786 17 ft 20 kts 345°
2026-05-06 12:41 -33.95432 151.18750 16 ft 17 kts 348°
2026-05-06 12:41 -33.95335 151.18724 19 ft 11 kts 346°
2026-05-06 12:41 -33.95265 151.18692 20 ft 12 kts 333°
2026-05-06 12:42 -33.95185 151.18618 20 ft 17 kts 315°
2026-05-06 12:42 -33.95124 151.18529 21 ft 11 kts 294°
2026-05-06 12:42 -33.95121 151.18425 20 ft 15 kts 256°
2026-05-06 12:42 -33.95140 151.18315 20 ft 11 kts 261°
2026-05-06 12:43 -33.95155 151.18236 20 ft 10 kts 257°
2026-05-06 12:43 -33.95163 151.18187 20 ft 0 kts 257°
2026-05-06 12:45 -33.95164 151.18185 20 ft 0 kts 257°
2026-05-06 12:45 -33.95176 151.18116 20 ft 17 kts 256°
2026-05-06 12:45 -33.95132 151.17953 20 ft 13 kts 344°
2026-05-06 12:46 -33.95015 151.17922 18 ft 19 kts 348°
2026-05-06 12:46 -33.94882 151.17888 15 ft 19 kts 348°
2026-05-06 12:46 -33.94767 151.17858 15 ft 16 kts 347°
2026-05-06 12:46 -33.94666 151.17832 15 ft 14 kts 349°
2026-05-06 12:47 -33.94582 151.17809 19 ft 12 kts 347°
2026-05-06 12:47 -33.94466 151.17774 17 ft 20 kts 345°
2026-05-06 12:47 -33.94312 151.17727 16 ft 23 kts 347°
2026-05-06 12:47 -33.94161 151.17682 16 ft 21 kts 344°
2026-05-06 12:48 -33.94020 151.17642 15 ft 21 kts 348°
2026-05-06 12:48 -33.93880 151.17602 13 ft 21 kts 341°
2026-05-06 12:48 -33.93744 151.17566 12 ft 20 kts 350°
2026-05-06 12:48 -33.93613 151.17533 10 ft 19 kts 348°
2026-05-06 12:49 -33.93488 151.17505 13 ft 17 kts 352°
2026-05-06 12:49 -33.93383 151.17501 15 ft 14 kts 355°
2026-05-06 12:49 -33.93286 151.17479 15 ft 16 kts 347°
2026-05-06 12:49 -33.93173 151.17448 15 ft 17 kts 347°
2026-05-06 12:50 -33.93070 151.17424 17 ft 13 kts 346°
2026-05-06 12:50 -33.92999 151.17410 18 ft 5 kts 45°
2026-05-06 12:50 -33.92983 151.17456 21 ft 8 kts 90°
2026-05-06 12:50 -33.93002 151.17578 24 ft 20 kts 101°
2026-05-06 12:51 -33.93045 151.17755 24 ft 21 kts 112°
2026-05-06 12:51 -33.93078 151.17907 27 ft 17 kts 92°
2026-05-06 12:51 -33.93093 151.18028 26 ft 13 kts 100°
2026-05-06 12:51 -33.93103 151.18119 25 ft 9 kts 87°
2026-05-06 12:52 -33.93070 151.18170 26 ft 7 kts 34°
2026-05-06 12:52 -33.93057 151.18207 26 ft 8 kts 122°
2026-05-06 12:52 -33.93075 151.18231 25 ft 0 kts 139°